This is the latest recevied weather packets stored in our database for station/object JF7ELG-13. If no packets are shown the sender has not sent any weather packets the latest 10 day(s).
| Time | Temp. | Humidity | Pressure | Rain* | Wind** | Luminosity | Snow |
|---|---|---|---|---|---|---|---|
| 1777691000 | 25.56° C | 28% | 997.2 hPa | 0 mm | - | - | - |
| 1777690114 | 26.67° C | 32% | 996.8 hPa | 0 mm | - | - | - |
| 1777689202 | 25.56° C | 40% | 996.4 hPa | 0 mm | - | - | - |
| 1777688327 | 23.33° C | 43% | 996.6 hPa | 0 mm | - | - | - |
| 1777687401 | 24.44° C | 42% | 997 hPa | 0 mm | - | - | - |
| 1777686515 | 22.78° C | 45% | 996.4 hPa | 0 mm | - | - | - |
| 1777685602 | 23.33° C | 43% | 996.5 hPa | 0 mm | - | - | - |
| 1777684738 | 23.33° C | 43% | 996.3 hPa | 0 mm | - | - | - |
| 1777683791 | 21.67° C | 48% | 996.5 hPa | 0 mm | - | - | - |
| 1777682922 | 21.11° C | 46% | 996.2 hPa | 0 mm | - | - | - |
| 1777682013 | 20.56° C | 47% | 996 hPa | 0 mm | - | - | - |
| 1777681131 | 20.56° C | 46% | 995.9 hPa | 0 mm | - | - | - |
| 1777680205 | 19.44° C | 47% | 995.4 hPa | 0 mm | - | - | - |
| 1777679313 | 18.89° C | 46% | 995.2 hPa | 0 mm | - | - | - |
| 1777678432 | 19.44° C | 46% | 994.6 hPa | 0 mm | - | - | - |
| 1777677493 | 19.44° C | 45% | 994.8 hPa | 0 mm | - | - | - |
| 1777676594 | 18.33° C | 47% | 994.8 hPa | 0 mm | - | - | - |
| 1777675694 | 17.78° C | 49% | 994.3 hPa | 0 mm | - | - | - |
| 1777674807 | 17.22° C | 50% | 993.7 hPa | 0 mm | - | - | - |
| 1777673902 | 17.22° C | 49% | 993.8 hPa | 0 mm | - | - | - |
| 1777673010 | 16.11° C | 51% | 993.8 hPa | 0 mm | - | - | - |
| 1777672103 | 16.11° C | 53% | 993.4 hPa | 0 mm | - | - | - |
| 1777671215 | 16.11° C | 55% | 992.5 hPa | 0 mm | - | - | - |
| 1777670300 | 15.56° C | 56% | 991.7 hPa | 0 mm | - | - | - |
| 1777669418 | 15° C | 60% | 990.9 hPa | 0 mm | - | - | - |
* Rain latest hour (hover to see other rain measurements)
** Current wind speed in m/s (hover to see current wind gust speed)